TimeEDT,TemperatureF,Dew PointF,Humidity,Sea Level PressureIn,VisibilityMPH,Wind Direction,Wind SpeedMPH,Gust SpeedMPH,PrecipitationIn,Events,Conditions,WindDirDegrees,DateUTC
12:51 AM,72.0,69.1,91,29.99,6.0,South,6.9,-,N/A,,Clear,180,2013-09-12 04:51:00
1:51 AM,71.1,69.1,93,29.97,5.0,South,5.8,-,N/A,,Clear,190,2013-09-12 05:51:00
2:51 AM,70.0,68.0,93,29.96,5.0,SSE,3.5,-,N/A,,Clear,160,2013-09-12 06:51:00
3:51 AM,70.0,68.0,93,29.96,5.0,South,6.9,-,N/A,,Clear,190,2013-09-12 07:51:00
4:51 AM,70.0,68.0,93,29.95,4.0,South,5.8,-,N/A,,Clear,180,2013-09-12 08:51:00
5:39 AM,69.8,68.0,94,29.95,4.0,South,8.1,-,N/A,,Partly Cloudy,190,2013-09-12 09:39:00
5:51 AM,70.0,68.0,93,29.95,4.0,SSW,5.8,-,N/A,,Mostly Cloudy,200,2013-09-12 09:51:00
6:51 AM,71.1,69.1,93,29.95,3.0,South,6.9,-,N/A,,Mostly Cloudy,180,2013-09-12 10:51:00
7:51 AM,73.0,69.1,87,29.94,6.0,South,8.1,-,N/A,,Mostly Cloudy,180,2013-09-12 11:51:00
8:23 AM,73.4,69.8,88,29.93,7.0,South,10.4,-,N/A,Fog,Patches of Fog,180,2013-09-12 12:23:00
8:51 AM,75.0,70.0,84,29.93,7.0,SSW,10.4,-,N/A,Fog,Patches of Fog,200,2013-09-12 12:51:00
9:51 AM,78.1,70.0,76,29.93,7.0,SSW,8.1,-,N/A,Fog,Patches of Fog,200,2013-09-12 13:51:00
10:51 AM,81.0,71.1,72,29.90,7.0,South,12.7,-,N/A,,Mostly Cloudy,170,2013-09-12 14:51:00
11:51 AM,80.1,71.1,74,29.88,7.0,SSW,13.8,-,N/A,,Mostly Cloudy,200,2013-09-12 15:51:00
12:51 PM,82.0,70.0,67,29.87,8.0,SSW,12.7,20.7,N/A,,Mostly Cloudy,200,2013-09-12 16:51:00
1:51 PM,84.0,70.0,63,29.84,10.0,South,16.1,20.7,N/A,,Mostly Cloudy,180,2013-09-12 17:51:00
2:51 PM,82.0,70.0,67,29.81,10.0,South,17.3,26.5,N/A,,Mostly Cloudy,190,2013-09-12 18:51:00
3:51 PM,81.0,70.0,69,29.79,10.0,SSW,13.8,-,N/A,,Mostly Cloudy,200,2013-09-12 19:51:00
4:51 PM,77.0,69.1,76,29.77,9.0,South,17.3,20.7,N/A,,Mostly Cloudy,180,2013-09-12 20:51:00
5:15 PM,75.2,69.8,83,29.77,8.0,SSW,12.7,20.7,N/A,,Overcast,200,2013-09-12 21:15:00
5:51 PM,75.0,69.1,82,29.78,8.0,SSW,13.8,-,N/A,,Overcast,210,2013-09-12 21:51:00
6:51 PM,73.9,69.1,85,29.76,8.0,SSW,12.7,-,N/A,,Overcast,210,2013-09-12 22:51:00
7:51 PM,73.0,69.1,87,29.75,9.0,SSW,11.5,-,N/A,,Overcast,200,2013-09-12 23:51:00
8:51 PM,73.0,68.0,84,29.75,5.0,SSW,10.4,-,N/A,,Overcast,200,2013-09-13 00:51:00
9:27 PM,73.4,68.0,83,29.73,5.0,South,15.0,-,N/A,,Overcast,190,2013-09-13 01:27:00
9:51 PM,73.0,68.0,84,29.72,5.0,SSW,15.0,24.2,N/A,,Overcast,200,2013-09-13 01:51:00
10:20 PM,73.4,69.8,88,29.73,5.0,SSW,21.9,27.6,0.02,Rain-Thunderstorm,Light Thunderstorms and Rain,210,2013-09-13 02:20:00
10:27 PM,71.6,69.8,94,29.74,1.8,SSW,12.7,27.6,0.08,Rain-Thunderstorm,Heavy Thunderstorms and Rain,210,2013-09-13 02:27:00
10:36 PM,71.6,69.8,94,29.74,3.0,SW,11.5,-,0.19,Rain-Thunderstorm,Light Thunderstorms and Rain,230,2013-09-13 02:36:00
10:51 PM,71.1,69.1,93,29.73,2.0,SSW,5.8,-,0.30,Rain-Thunderstorm,Heavy Thunderstorms and Rain,210,2013-09-13 02:51:00
11:00 PM,71.6,69.8,94,29.73,3.0,South,3.5,-,0.05,Rain-Thunderstorm,Heavy Thunderstorms and Rain,190,2013-09-13 03:00:00
11:06 PM,71.6,69.8,94,29.73,4.0,South,6.9,-,0.07,Rain,Heavy Rain,180,2013-09-13 03:06:00
11:51 PM,70.0,68.0,93,29.70,4.0,SSW,5.8,-,0.24,Rain,Rain,200,2013-09-13 03:51:00